| time (UTC) | temp C | wind direction | speed KPH | gust KPH | rain 1hr cm | rain 24hr cm | rain mn cm | humidity % | barometer mb |
| 20260509054350 | 30 | 29 | 4.8 | 4.8 | 0.00 | 0.00 | 0.84 | 76 | 1005.0 |
| 20260509053850 | 30 | 68 | 8.0 | 11.3 | 0.00 | 0.00 | 0.84 | 77 | 1005.0 |
| 20260509053350 | 30 | 98 | 6.4 | 9.7 | 0.00 | 0.00 | 0.84 | 76 | 1005.0 |
| 20260509052850 | 30 | 61 | 4.8 | 9.7 | 0.00 | 0.00 | 0.84 | 75 | 1005.0 |
| 20260509052350 | 30 | 60 | 8.0 | 9.7 | 0.00 | 0.00 | 0.84 | 76 | 1005.0 |
| 20260509051851 | 30 | 45 | 8.0 | 11.3 | 0.00 | 0.00 | 0.84 | 76 | 1005.0 |
| 20260509051352 | 30 | 151 | 3.2 | 4.8 | 0.00 | 0.00 | 0.84 | 77 | 1005.0 |
| 20260509050851 | 30 | 97 | 3.2 | 4.8 | 0.00 | 0.00 | 0.84 | 74 | 1005.0 |
| 20260509050358 | 30 | 63 | 3.2 | 4.8 | 0.00 | 0.00 | 0.84 | 75 | 1005.0 |
| 20260509045850 | 30 | 19 | 3.2 | 3.2 | 0.00 | 0.00 | 0.84 | 77 | 1005.0 |
| 20260509045350 | 29 | 100 | 6.4 | 8.0 | 0.00 | 0.00 | 0.84 | 80 | 1005.0 |
| 20260509044850 | 29 | 114 | 1.6 | 3.2 | 0.00 | 0.00 | 0.84 | 82 | 1005.0 |
| 20260509044351 | 28 | 10 | 3.2 | 3.2 | 0.00 | 0.00 | 0.84 | 84 | 1005.0 |
| 20260509043850 | 28 | 99 | 4.8 | 9.7 | 0.00 | 0.00 | 0.84 | 83 | 1005.0 |
| 20260509043351 | 28 | 4 | 6.4 | 8.0 | 0.00 | 0.00 | 0.84 | 82 | 1005.0 |
| 20260509042850 | 28 | 2 | 3.2 | 4.8 | 0.00 | 0.00 | 0.84 | 82 | 1005.0 |
| 20260509042351 | 28 | 96 | 4.8 | 4.8 | 0.00 | 0.00 | 0.84 | 82 | 1005.0 |
| 20260509041851 | 28 | 63 | 4.8 | 8.0 | 0.00 | 0.00 | 0.84 | 82 | 1006.0 |
| 20260509041350 | 28 | 43 | 3.2 | 4.8 | 0.00 | 0.00 | 0.84 | 84 | 1006.0 |
| 20260509040850 | 28 | 115 | 1.6 | 1.6 | 0.00 | 0.00 | 0.84 | 85 | 1006.0 |
| 20260509040350 | 28 | 145 | 0.0 | 0.0 | 0.00 | 0.00 | 0.84 | 85 | 1006.0 |
| 20260509035850 | 28 | 136 | 1.6 | 3.2 | 0.00 | 0.00 | 0.84 | 85 | 1006.0 |
| 20260509035350 | 27 | 132 | 0.0 | 1.6 | 0.00 | 0.00 | 0.84 | 87 | 1006.0 |
| 20260509034850 | 27 | 24 | 3.2 | 4.8 | 0.00 | 0.00 | 0.84 | 88 | 1006.0 |
| 20260509034350 | 27 | 126 | 0.0 | 1.6 | 0.00 | 0.00 | 0.84 | 89 | 1006.0 |
| 20260509033851 | 27 | 129 | 0.0 | 1.6 | 0.00 | 0.00 | 0.84 | 91 | 1005.0 |
| 20260509033350 | 27 | 62 | 3.2 | 3.2 | 0.00 | 0.00 | 0.84 | 92 | 1005.0 |
| 20260509032850 | 26 | 95 | 1.6 | 1.6 | 0.18 | 0.00 | 0.84 | 92 | 1005.0 |
| 20260509032350 | 26 | 120 | 0.0 | 0.0 | 0.18 | 0.00 | 0.84 | 92 | 1005.0 |
| 20260509031850 | 26 | 134 | 0.0 | 0.0 | 0.13 | 0.00 | 0.81 | 92 | 1005.0 |
| 20260509031350 | 26 | 180 | 0.0 | 0.0 | 0.13 | 0.00 | 0.81 | 93 | 1005.0 |
| 20260509030850 | 26 | 14 | 3.2 | 3.2 | 0.00 | 0.00 | 0.79 | 93 | 1005.0 |
| 20260509030351 | 26 | 87 | 1.6 | 1.6 | 0.00 | 0.00 | 0.79 | 93 | 1005.0 |
| 20260509025850 | 26 | 102 | 4.8 | 4.8 | 0.00 | 0.00 | 0.79 | 93 | 1005.0 |
| 20260509025351 | 26 | 151 | 1.6 | 1.6 | 0.00 | 0.00 | 0.79 | 93 | 1005.0 |
| 20260509024851 | 26 | 79 | 1.6 | 3.2 | 0.00 | 0.00 | 0.79 | 93 | 1005.0 |
| 20260509024350 | 26 | 138 | 0.0 | 1.6 | 0.00 | 0.00 | 0.79 | 92 | 1005.0 |
| 20260509023852 | 26 | 99 | 0.0 | 1.6 | 0.18 | 0.00 | 0.79 | 92 | 1005.0 |
| 20260509023350 | 26 | 144 | 0.0 | 0.0 | 0.18 | 0.00 | 0.79 | 92 | 1005.0 |
| 20260509022850 | 26 | 173 | 0.0 | 0.0 | 0.00 | 0.00 | 0.76 | 92 | 1005.0 |
| 20260509022351 | 26 | 125 | 0.0 | 0.0 | 0.00 | 0.00 | 0.76 | 92 | 1005.0 |
| 20260509021851 | 26 | 61 | 1.6 | 1.6 | 0.13 | 0.00 | 0.76 | 91 | 1005.0 |
| 20260509021350 | 26 | 56 | 3.2 | 3.2 | 0.30 | 0.00 | 0.76 | 90 | 1005.0 |
| 20260509020850 | 26 | 115 | 6.4 | 8.0 | 0.18 | 0.00 | 0.74 | 89 | 1005.0 |
| 20260509020350 | 26 | 58 | 1.6 | 3.2 | 0.00 | 0.00 | 0.71 | 89 | 1005.0 |
| 20260509015850 | 26 | 325 | 8.0 | 9.7 | 0.00 | 0.00 | 0.71 | 89 | 1005.0 |
| 20260509015350 | 26 | 122 | 0.0 | 1.6 | 0.00 | 0.00 | 0.71 | 90 | 1004.0 |
| 20260509014850 | 26 | 353 | 3.2 | 3.2 | 0.00 | 0.00 | 0.71 | 90 | 1004.0 |
| 20260509014350 | 26 | 359 | 3.2 | 3.2 | 0.00 | 0.00 | 0.71 | 91 | 1005.0 |
| 20260509013850 | 26 | 42 | 0.0 | 1.6 | 0.00 | 0.00 | 0.71 | 91 | 1004.0 |
| 20260509013350 | 26 | 59 | 1.6 | 1.6 | 0.00 | 0.00 | 0.71 | 91 | 1004.0 |
| 20260509012850 | 26 | 340 | 4.8 | 4.8 | 0.00 | 0.00 | 0.71 | 92 | 1004.0 |
| 20260509012350 | 26 | 146 | 1.6 | 1.6 | 0.00 | 0.00 | 0.71 | 92 | 1004.0 |
| 20260509011850 | 26 | 80 | 3.2 | 3.2 | 0.00 | 0.00 | 0.71 | 93 | 1004.0 |
| 20260509011350 | 26 | 7 | 3.2 | 3.2 | 0.00 | 0.00 | 0.71 | 92 | 1004.0 |
| 20260509010850 | 26 | 107 | 0.0 | 0.0 | 0.00 | 0.00 | 0.71 | 93 | 1004.0 |
| 20260509010350 | 26 | 101 | 0.0 | 0.0 | 0.00 | 0.00 | 0.71 | 93 | 1003.0 |
| 20260509005851 | 26 | 134 | 0.0 | 0.0 | 0.00 | 0.00 | 0.71 | 93 | 1003.0 |
| 20260509005350 | 26 | 132 | 3.2 | 3.2 | 0.00 | 0.00 | 0.71 | 93 | 1003.0 |
| 20260509004852 | 26 | 356 | 1.6 | 3.2 | 0.00 | 0.00 | 0.71 | 93 | 1003.0 |
| 20260509004351 | 26 | 171 | 0.0 | 0.0 | 0.00 | 0.00 | 0.71 | 93 | 1003.0 |
| 20260509003851 | 26 | 359 | 3.2 | 3.2 | 0.00 | 0.00 | 0.71 | 93 | 1003.0 |
| 20260509003350 | 26 | 166 | 0.0 | 0.0 | 0.00 | 0.00 | 0.71 | 93 | 1003.0 |
| 20260509002850 | 26 | 339 | 4.8 | 4.8 | 0.00 | 0.00 | 0.71 | 93 | 1003.0 |
| 20260509002350 | 26 | 32 | 0.0 | 1.6 | 0.00 | 0.00 | 0.71 | 93 | 1003.0 |
| 20260509001850 | 26 | 72 | 1.6 | 1.6 | 0.00 | 0.00 | 0.71 | 93 | 1003.0 |
| 20260509001350 | 26 | 50 | 3.2 | 3.2 | 0.00 | 0.00 | 0.71 | 93 | 1002.0 |
| 20260509000850 | 26 | 140 | 0.0 | 1.6 | 0.00 | 0.00 | 0.71 | 93 | 1002.0 |
| 20260509000350 | 26 | 8 | 8.0 | 9.7 | 0.00 | 0.00 | 0.71 | 93 | 1002.0 |
| 20260508235850 | 26 | 64 | 1.6 | 3.2 | 0.13 | 0.00 | 0.71 | 93 | 1002.0 |
| 20260508235350 | 26 | 108 | 0.0 | 0.0 | 0.13 | 0.00 | 0.71 | 93 | 1003.0 |
| 20260508234850 | 26 | 37 | 1.6 | 3.2 | 0.30 | 0.00 | 0.71 | 92 | 1002.0 |
| 20260508234350 | 26 | 135 | 0.0 | 1.6 | 0.48 | 0.00 | 0.69 | 92 | 1003.0 |
| 20260508233406 | 26 | 95 | 3.2 | 3.2 | 1.68 | 0.00 | 0.61 | 91 | 1003.0 |
| 20260508232851 | 26 | 43 | 3.2 | 4.8 | 3.17 | 0.00 | 0.56 | 90 | 1003.0 |
| 20260508232350 | 27 | 156 | 1.6 | 3.2 | 2.29 | 0.00 | 0.38 | 90 | 1003.0 |
| 20260508231851 | 27 | 65 | 0.0 | 1.6 | 0.30 | 0.00 | 0.05 | 88 | 1003.0 |
| 20260508231350 | 27 | 154 | 0.0 | 1.6 | 0.00 | 0.00 | 0.00 | 87 | 1002.0 |
| 20260508230850 | 27 | 138 | 0.0 | 1.6 | 0.00 | 0.00 | 0.00 | 87 | 1003.0 |
| 20260508230350 | 27 | 343 | 11.3 | 11.3 | 0.00 | 0.00 | 0.00 | 86 | 1002.0 |
| 20260508225850 | 27 | 6 | 1.6 | 3.2 | 0.00 | 0.00 | 0.00 | 85 | 1002.0 |
| 20260508225351 | 27 | 89 | 1.6 | 1.6 | 0.00 | 0.00 | 0.00 | 85 | 1002.0 |
| 20260508224851 | 27 | 305 | 3.2 | 3.2 | 0.00 | 0.00 | 0.00 | 85 | 1002.0 |
| 20260508224350 | 27 | 157 | 0.0 | 0.0 | 0.00 | 0.00 | 0.00 | 85 | 1002.0 |
| 20260508223850 | 27 | 26 | 1.6 | 3.2 | 0.00 | 0.00 | 0.00 | 84 | 1002.0 |
| 20260508223350 | 27 | 325 | 1.6 | 1.6 | 0.00 | 0.00 | 0.00 | 84 | 1002.0 |
| 20260508222850 | 27 | 179 | 1.6 | 1.6 | 0.00 | 0.00 | 0.00 | 84 | 1002.0 |
| 20260508222350 | 27 | 141 | 1.6 | 1.6 | 0.00 | 0.00 | 0.00 | 84 | 1002.0 |
| 20260508221850 | 27 | 134 | 0.0 | 0.0 | 0.00 | 0.00 | 0.00 | 83 | 1002.0 |
| 20260508221350 | 27 | 349 | 3.2 | 3.2 | 0.00 | 0.00 | 0.00 | 83 | 1002.0 |
| 20260508220850 | 27 | 347 | 1.6 | 3.2 | 0.00 | 0.00 | 0.00 | 84 | 1002.0 |
| 20260508220351 | 27 | 138 | 1.6 | 3.2 | 0.00 | 0.00 | 0.00 | 84 | 1002.0 |
| 20260508215850 | 27 | 123 | 1.6 | 1.6 | 0.00 | 0.00 | 0.00 | 84 | 1002.0 |
| 20260508215350 | 27 | 114 | 0.0 | 0.0 | 0.00 | 0.00 | 0.00 | 84 | 1002.0 |
| 20260508214850 | 27 | 146 | 0.0 | 0.0 | 0.00 | 0.00 | 0.00 | 84 | 1002.0 |
| 20260508214350 | 27 | 59 | 1.6 | 3.2 | 0.00 | 0.00 | 0.00 | 84 | 1002.0 |
| 20260508213850 | 27 | 174 | 1.6 | 3.2 | 0.00 | 0.00 | 0.00 | 84 | 1001.0 |
| 20260508213350 | 27 | 78 | 1.6 | 3.2 | 0.00 | 0.00 | 0.00 | 84 | 1002.0 |
| 20260508212850 | 27 | 233 | 1.6 | 1.6 | 0.00 | 0.00 | 0.00 | 84 | 1002.0 |
| 20260508212350 | 27 | 125 | 0.0 | 0.0 | 0.00 | 0.00 | 0.00 | 84 | 1002.0 |
| 20260508211850 | 27 | 153 | 0.0 | 0.0 | 0.00 | 0.00 | 0.00 | 84 | 1002.0 |
| 20260508211350 | 27 | 334 | 3.2 | 3.2 | 0.00 | 0.00 | 0.00 | 84 | 1002.0 |
| 20260508210851 | 27 | 127 | 0.0 | 1.6 | 0.00 | 0.00 | 0.00 | 84 | 1002.0 |
| 20260508210350 | 27 | 342 | 1.6 | 3.2 | 0.00 | 0.00 | 0.00 | 84 | 1002.0 |
| 20260508205850 | 27 | 147 | 1.6 | 1.6 | 0.00 | 0.00 | 0.00 | 84 | 1002.0 |
| 20260508205350 | 28 | 349 | 4.8 | 4.8 | 0.00 | 0.00 | 0.00 | 84 | 1002.0 |
| 20260508204851 | 28 | 351 | 4.8 | 8.0 | 0.00 | 0.00 | 0.00 | 83 | 1002.0 |
| 20260508204351 | 28 | 118 | 0.0 | 0.0 | 0.00 | 0.00 | 0.00 | 83 | 1002.0 |
| 20260508203850 | 28 | 169 | 0.0 | 1.6 | 0.00 | 0.00 | 0.00 | 83 | 1002.0 |
| 20260508203350 | 28 | 339 | 1.6 | 1.6 | 0.00 | 0.00 | 0.00 | 83 | 1002.0 |
| 20260508202857 | 28 | 116 | 3.2 | 3.2 | 0.00 | 0.00 | 0.00 | 83 | 1002.0 |
| 20260508202351 | 28 | 339 | 1.6 | 1.6 | 0.00 | 0.00 | 0.00 | 83 | 1002.0 |
| 20260508201850 | 28 | 8 | 4.8 | 4.8 | 0.00 | 0.00 | 0.00 | 83 | 1002.0 |
| 20260508201351 | 28 | 101 | 1.6 | 1.6 | 0.00 | 0.00 | 0.00 | 83 | 1002.0 |
| 20260508200857 | 28 | 331 | 1.6 | 1.6 | 0.00 | 0.00 | 0.00 | 82 | 1003.0 |
| 20260508200350 | 28 | 188 | 1.6 | 3.2 | 0.00 | 0.00 | 0.00 | 82 | 1002.0 |
| 20260508195851 | 28 | 347 | 4.8 | 4.8 | 0.00 | 0.00 | 0.00 | 82 | 1003.0 |
| 20260508195350 | 28 | 147 | 0.0 | 0.0 | 0.00 | 0.00 | 0.00 | 82 | 1002.0 |
| 20260508194851 | 28 | 329 | 1.6 | 1.6 | 0.00 | 0.00 | 0.00 | 82 | 1003.0 |
| 20260508194351 | 28 | 337 | 4.8 | 4.8 | 0.00 | 0.00 | 0.00 | 82 | 1003.0 |
| 20260508193853 | 28 | 341 | 3.2 | 3.2 | 0.00 | 0.00 | 0.00 | 82 | 1003.0 |
| 20260508193351 | 28 | 222 | 1.6 | 3.2 | 0.00 | 0.00 | 0.00 | 82 | 1003.0 |
| 20260508192850 | 28 | 129 | 1.6 | 1.6 | 0.00 | 0.00 | 0.00 | 81 | 1003.0 |
| 20260508192350 | 28 | 258 | 1.6 | 1.6 | 0.00 | 0.00 | 0.00 | 80 | 1003.0 |
| 20260508191854 | 28 | 151 | 0.0 | 1.6 | 0.00 | 0.00 | 0.00 | 79 | 1003.0 |
| 20260508191350 | 28 | 39 | 0.0 | 1.6 | 0.00 | 0.00 | 0.00 | 79 | 1003.0 |
| 20260508190850 | 28 | 150 | 0.0 | 0.0 | 0.00 | 0.00 | 0.00 | 79 | 1003.0 |
| 20260508190351 | 28 | 356 | 3.2 | 3.2 | 0.00 | 0.00 | 0.00 | 79 | 1003.0 |
| 20260508185850 | 28 | 145 | 0.0 | 0.0 | 0.00 | 0.00 | 0.00 | 79 | 1003.0 |
| 20260508185351 | 28 | 127 | 0.0 | 1.6 | 0.00 | 0.00 | 0.00 | 79 | 1003.0 |
| 20260508184851 | 28 | 348 | 1.6 | 3.2 | 0.00 | 0.00 | 0.00 | 78 | 1004.0 |
| 20260508184351 | 28 | 135 | 0.0 | 0.0 | 0.00 | 0.00 | 0.00 | 78 | 1004.0 |
| 20260508183850 | 28 | 139 | 0.0 | 0.0 | 0.00 | 0.00 | 0.00 | 78 | 1003.0 |
| 20260508183351 | 28 | 168 | 0.0 | 0.0 | 0.00 | 0.00 | 0.00 | 78 | 1003.0 |
| 20260508182850 | 28 | 138 | 1.6 | 1.6 | 0.00 | 0.00 | 0.10 | 78 | 1004.0 |
| 20260508182351 | 28 | 97 | 1.6 | 1.6 | 0.00 | 0.00 | 0.10 | 78 | 1004.0 |
| 20260508181851 | 28 | 135 | 0.0 | 0.0 | 0.00 | 0.00 | 0.10 | 78 | 1004.0 |
| 20260508181350 | 28 | 127 | 0.0 | 0.0 | 0.00 | 0.00 | 0.10 | 78 | 1004.0 |
| 20260508180851 | 28 | 135 | 0.0 | 0.0 | 0.00 | 0.00 | 0.10 | 78 | 1004.0 |
| 20260508180352 | 28 | 122 | 1.6 | 1.6 | 0.00 | 0.00 | 0.10 | 78 | 1004.0 |
| 20260508175850 | 28 | 114 | 3.2 | 3.2 | 0.00 | 0.00 | 0.10 | 78 | 1004.0 |
| 20260508175351 | 28 | 101 | 1.6 | 3.2 | 0.00 | 0.00 | 0.10 | 78 | 1004.0 |
| 20260508174850 | 28 | 85 | 4.8 | 8.0 | 0.00 | 0.00 | 0.10 | 77 | 1004.0 |
| 20260508174350 | 28 | 84 | 4.8 | 9.7 | 0.00 | 0.00 | 0.10 | 77 | 1004.0 |
| 20260508173853 | 29 | 96 | 6.4 | 8.0 | 0.00 | 0.00 | 0.10 | 77 | 1004.0 |
| 20260508173351 | 29 | 100 | 1.6 | 3.2 | 0.00 | 0.00 | 0.10 | 77 | 1004.0 |
| 20260508172851 | 29 | 55 | 3.2 | 3.2 | 0.00 | 0.00 | 0.10 | 77 | 1004.0 |
| 20260508172352 | 29 | 164 | 8.0 | 9.7 | 0.00 | 0.00 | 0.10 | 76 | 1004.0 |
| 20260508171852 | 29 | 154 | 1.6 | 1.6 | 0.00 | 0.00 | 0.10 | 76 | 1004.0 |
| 20260508171352 | 29 | 71 | 0.0 | 3.2 | 0.00 | 0.00 | 0.10 | 76 | 1004.0 |
| 20260508170851 | 29 | 151 | 0.0 | 0.0 | 0.00 | 0.00 | 0.10 | 76 | 1004.0 |
| 20260508170350 | 29 | 86 | 3.2 | 3.2 | 0.00 | 0.00 | 0.10 | 76 | 1005.0 |
| 20260508165850 | 29 | 174 | 1.6 | 1.6 | 0.00 | 0.00 | 0.10 | 76 | 1004.0 |
| 20260508165351 | 29 | 83 | 0.0 | 1.6 | 0.00 | 0.00 | 0.10 | 76 | 1005.0 |
| 20260508164850 | 28 | 122 | 1.6 | 1.6 | 0.00 | 0.00 | 0.10 | 76 | 1004.0 |
| 20260508164353 | 28 | 156 | 0.0 | 0.0 | 0.00 | 0.00 | 0.10 | 76 | 1004.0 |
| 20260508163851 | 28 | 94 | 3.2 | 3.2 | 0.00 | 0.00 | 0.10 | 76 | 1004.0 |
| 20260508163351 | 28 | 120 | 3.2 | 3.2 | 0.00 | 0.00 | 0.10 | 77 | 1004.0 |
| 20260508162850 | 28 | 140 | 3.2 | 3.2 | 0.00 | 0.00 | 0.10 | 78 | 1004.0 |
| 20260508162352 | 28 | 97 | 1.6 | 3.2 | 0.00 | 0.00 | 0.10 | 78 | 1004.0 |
| 20260508161851 | 28 | 81 | 3.2 | 3.2 | 0.00 | 0.00 | 0.10 | 77 | 1004.0 |
| 20260508161350 | 28 | 82 | 4.8 | 8.0 | 0.00 | 0.00 | 0.10 | 77 | 1004.0 |
| 20260508160850 | 28 | 95 | 1.6 | 1.6 | 0.00 | 0.00 | 0.10 | 79 | 1004.0 |
| 20260508160351 | 28 | 159 | 4.8 | 4.8 | 0.00 | 0.00 | 0.10 | 79 | 1004.0 |
| 20260508155852 | 28 | 118 | 1.6 | 3.2 | 0.00 | 0.00 | 0.10 | 79 | 1004.0 |
| 20260508155352 | 28 | 97 | 1.6 | 3.2 | 0.00 | 0.00 | 0.10 | 79 | 1004.0 |
| 20260508154850 | 28 | 140 | 0.0 | 0.0 | 0.00 | 0.00 | 0.10 | 78 | 1004.0 |
| 20260508154350 | 28 | 94 | 3.2 | 4.8 | 0.00 | 0.00 | 0.10 | 78 | 1004.0 |
| 20260508153851 | 28 | 80 | 1.6 | 1.6 | 0.00 | 0.00 | 0.10 | 78 | 1004.0 |
| 20260508153353 | 28 | 178 | 1.6 | 3.2 | 0.00 | 0.00 | 0.10 | 78 | 1004.0 |
| 20260508152852 | 28 | 165 | 6.4 | 9.7 | 0.00 | 0.00 | 0.10 | 77 | 1004.0 |
| 20260508152351 | 28 | 146 | 0.0 | 1.6 | 0.00 | 0.00 | 0.10 | 77 | 1004.0 |
| 20260508151850 | 28 | 140 | 3.2 | 4.8 | 0.00 | 0.00 | 0.10 | 77 | 1004.0 |
| 20260508151352 | 28 | 100 | 1.6 | 3.2 | 0.00 | 0.00 | 0.10 | 77 | 1004.0 |
| 20260508150851 | 28 | 67 | 3.2 | 3.2 | 0.00 | 0.00 | 0.10 | 78 | 1004.0 |
| 20260508150350 | 28 | 95 | 1.6 | 3.2 | 0.00 | 0.00 | 0.10 | 78 | 1004.0 |
| 20260508145850 | 28 | 101 | 4.8 | 8.0 | 0.00 | 0.00 | 0.10 | 78 | 1004.0 |
| 20260508145350 | 28 | 116 | 6.4 | 8.0 | 0.00 | 0.00 | 0.10 | 78 | 1004.0 |
| 20260508144850 | 28 | 112 | 4.8 | 4.8 | 0.00 | 0.00 | 0.10 | 78 | 1004.0 |
| 20260508144350 | 28 | 84 | 1.6 | 3.2 | 0.00 | 0.00 | 0.10 | 78 | 1004.0 |
| 20260508143851 | 28 | 120 | 4.8 | 4.8 | 0.00 | 0.00 | 0.10 | 78 | 1003.0 |
| 20260508143351 | 28 | 79 | 4.8 | 8.0 | 0.00 | 0.00 | 0.10 | 79 | 1004.0 |
| 20260508142850 | 28 | 177 | 4.8 | 8.0 | 0.00 | 0.00 | 0.10 | 79 | 1004.0 |
| 20260508142350 | 28 | 95 | 4.8 | 9.7 | 0.00 | 0.00 | 0.10 | 79 | 1004.0 |
| 20260508141851 | 29 | 86 | 4.8 | 8.0 | 0.00 | 0.00 | 0.10 | 79 | 1004.0 |
| 20260508141351 | 29 | 79 | 1.6 | 3.2 | 0.00 | 0.00 | 0.10 | 78 | 1004.0 |
| 20260508140851 | 28 | 80 | 4.8 | 8.0 | 0.00 | 0.00 | 0.10 | 78 | 1003.0 |
| 20260508140350 | 28 | 115 | 8.0 | 11.3 | 0.00 | 0.00 | 0.10 | 78 | 1003.0 |
| 20260508135850 | 28 | 76 | 4.8 | 4.8 | 0.00 | 0.00 | 0.10 | 78 | 1003.0 |
| 20260508135352 | 28 | 62 | 8.0 | 9.7 | 0.00 | 0.00 | 0.10 | 77 | 1003.0 |
| 20260508134850 | 28 | 90 | 4.8 | 8.0 | 0.00 | 0.00 | 0.10 | 77 | 1003.0 |
| 20260508134350 | 29 | 128 | 4.8 | 8.0 | 0.00 | 0.00 | 0.10 | 77 | 1003.0 |
| 20260508133852 | 29 | 60 | 4.8 | 8.0 | 0.00 | 0.00 | 0.10 | 76 | 1003.0 |
| 20260508133350 | 29 | 38 | 4.8 | 8.0 | 0.00 | 0.00 | 0.10 | 75 | 1003.0 |
| 20260508132850 | 29 | 62 | 4.8 | 4.8 | 0.00 | 0.00 | 0.10 | 75 | 1003.0 |
| 20260508132350 | 29 | 72 | 8.0 | 11.3 | 0.00 | 0.00 | 0.10 | 74 | 1003.0 |
| 20260508131850 | 29 | 71 | 4.8 | 4.8 | 0.00 | 0.00 | 0.10 | 75 | 1003.0 |
| 20260508131350 | 29 | 80 | 4.8 | 8.0 | 0.00 | 0.00 | 0.10 | 76 | 1003.0 |
| 20260508130850 | 29 | 58 | 4.8 | 8.0 | 0.00 | 0.00 | 0.10 | 76 | 1003.0 |
| 20260508130351 | 29 | 47 | 6.4 | 9.7 | 0.00 | 0.00 | 0.10 | 76 | 1003.0 |
| 20260508125850 | 29 | 83 | 8.0 | 12.9 | 0.00 | 0.00 | 0.10 | 77 | 1003.0 |
| 20260508125351 | 29 | 58 | 6.4 | 9.7 | 0.00 | 0.00 | 0.10 | 78 | 1003.0 |
| 20260508124850 | 29 | 82 | 11.3 | 14.5 | 0.00 | 0.00 | 0.10 | 77 | 1003.0 |
| 20260508124352 | 29 | 98 | 6.4 | 8.0 | 0.00 | 0.00 | 0.10 | 76 | 1002.0 |
| 20260508123851 | 29 | 127 | 1.6 | 3.2 | 0.00 | 0.00 | 0.10 | 76 | 1003.0 |
| 20260508123351 | 30 | 65 | 11.3 | 14.5 | 0.00 | 0.00 | 0.10 | 75 | 1003.0 |
| 20260508122850 | 30 | 96 | 4.8 | 4.8 | 0.00 | 0.00 | 0.10 | 75 | 1002.0 |
| 20260508122351 | 29 | 87 | 4.8 | 8.0 | 0.00 | 0.00 | 0.10 | 75 | 1003.0 |
| 20260508121851 | 29 | 67 | 6.4 | 11.3 | 0.00 | 0.00 | 0.10 | 76 | 1002.0 |
| 20260508121351 | 30 | 92 | 4.8 | 9.7 | 0.00 | 0.00 | 0.10 | 75 | 1002.0 |
| 20260508120851 | 30 | 103 | 4.8 | 8.0 | 0.00 | 0.00 | 0.10 | 74 | 1002.0 |
| 20260508120351 | 30 | 88 | 6.4 | 8.0 | 0.00 | 0.00 | 0.10 | 74 | 1002.0 |
| 20260508115851 | 30 | 75 | 9.7 | 14.5 | 0.00 | 0.00 | 0.10 | 72 | 1002.0 |
| 20260508115350 | 30 | 52 | 6.4 | 8.0 | 0.00 | 0.00 | 0.10 | 70 | 1002.0 |
| 20260508114850 | 30 | 98 | 8.0 | 12.9 | 0.00 | 0.00 | 0.10 | 69 | 1002.0 |
| 20260508114355 | 30 | 335 | 11.3 | 16.1 | 0.00 | 0.00 | 0.10 | 68 | 1002.0 |
| 20260508113852 | 30 | 142 | 0.0 | 1.6 | 0.00 | 0.00 | 0.10 | 66 | 1002.0 |
| 20260508113350 | 30 | 59 | 6.4 | 8.0 | 0.00 | 0.00 | 0.10 | 66 | 1002.0 |
| 20260508112850 | 30 | 67 | 6.4 | 8.0 | 0.00 | 0.00 | 0.10 | 66 | 1002.0 |
| 20260508112353 | 30 | 65 | 6.4 | 11.3 | 0.00 | 0.00 | 0.10 | 65 | 1002.0 |
| 20260508111850 | 31 | 135 | 1.6 | 3.2 | 0.00 | 0.00 | 0.10 | 64 | 1002.0 |
| 20260508111350 | 31 | 104 | 9.7 | 14.5 | 0.00 | 0.00 | 0.10 | 62 | 1002.0 |
| 20260508110850 | 31 | 45 | 8.0 | 12.9 | 0.00 | 0.00 | 0.10 | 57 | 1002.0 |
| 20260508110350 | 31 | 51 | 9.7 | 12.9 | 0.00 | 0.00 | 0.10 | 58 | 1002.0 |
| 20260508105850 | 31 | 75 | 8.0 | 9.7 | 0.00 | 0.00 | 0.10 | 57 | 1002.0 |
| 20260508105350 | 32 | 91 | 1.6 | 4.8 | 0.00 | 0.00 | 0.10 | 55 | 1002.0 |
| 20260508104850 | 32 | 51 | 12.9 | 22.5 | 0.00 | 0.00 | 0.10 | 56 | 1002.0 |
| 20260508104350 | 32 | 83 | 11.3 | 16.1 | 0.00 | 0.00 | 0.10 | 55 | 1002.0 |
| 20260508103850 | 32 | 33 | 6.4 | 11.3 | 0.00 | 0.00 | 0.10 | 56 | 1002.0 |
| 20260508103351 | 32 | 353 | 9.7 | 14.5 | 0.00 | 0.00 | 0.10 | 56 | 1002.0 |
| 20260508102850 | 32 | 77 | 1.6 | 3.2 | 0.00 | 0.00 | 0.10 | 56 | 1002.0 |
| 20260508102350 | 32 | 81 | 8.0 | 12.9 | 0.00 | 0.00 | 0.10 | 57 | 1002.0 |
| 20260508101851 | 32 | 46 | 4.8 | 8.0 | 0.00 | 0.00 | 0.10 | 56 | 1002.0 |
| 20260508101350 | 32 | 93 | 3.2 | 3.2 | 0.00 | 0.00 | 0.10 | 56 | 1002.0 |
| 20260508100852 | 31 | 77 | 8.0 | 11.3 | 0.00 | 0.00 | 0.10 | 60 | 1002.0 |
| 20260508100351 | 31 | 113 | 8.0 | 11.3 | 0.00 | 0.00 | 0.10 | 59 | 1002.0 |
| 20260508095851 | 31 | 103 | 8.0 | 14.5 | 0.00 | 0.00 | 0.10 | 58 | 1002.0 |
| 20260508095351 | 31 | 164 | 9.7 | 14.5 | 0.00 | 0.00 | 0.10 | 59 | 1002.0 |
| 20260508094850 | 31 | 58 | 6.4 | 11.3 | 0.00 | 0.00 | 0.10 | 62 | 1002.0 |
| 20260508094352 | 31 | 78 | 9.7 | 14.5 | 0.00 | 0.00 | 0.10 | 61 | 1002.0 |
| 20260508093850 | 31 | 51 | 11.3 | 17.7 | 0.00 | 0.00 | 0.10 | 62 | 1002.0 |
| 20260508093351 | 31 | 72 | 9.7 | 14.5 | 0.00 | 0.00 | 0.10 | 64 | 1002.0 |
| 20260508092850 | 31 | 58 | 8.0 | 12.9 | 0.00 | 0.00 | 0.10 | 65 | 1002.0 |
| 20260508092350 | 31 | 112 | 11.3 | 12.9 | 0.00 | 0.00 | 0.10 | 66 | 1002.0 |
| 20260508091850 | 30 | 81 | 14.5 | 16.1 | 0.00 | 0.00 | 0.10 | 68 | 1002.0 |
| 20260508091352 | 30 | 85 | 14.5 | 16.1 | 0.00 | 0.00 | 0.10 | 67 | 1002.0 |
| 20260508090445 | 30 | 120 | 9.7 | 14.5 | 0.00 | 0.00 | 0.10 | 68 | 1002.0 |
| 20260508085850 | 30 | 71 | 9.7 | 11.3 | 0.00 | 0.00 | 0.10 | 69 | 1002.0 |
| 20260508085350 | 30 | 85 | 8.0 | 9.7 | 0.00 | 0.00 | 0.10 | 69 | 1002.0 |
| 20260508084854 | 30 | 57 | 8.0 | 11.3 | 0.00 | 0.00 | 0.10 | 69 | 1002.0 |
| 20260508084350 | 30 | 99 | 11.3 | 12.9 | 0.00 | 0.00 | 0.10 | 68 | 1002.0 |
| 20260508083850 | 30 | 28 | 14.5 | 14.5 | 0.00 | 0.00 | 0.10 | 69 | 1002.0 |
| 20260508083352 | 30 | 49 | 8.0 | 11.3 | 0.00 | 0.00 | 0.10 | 70 | 1002.0 |
| 20260508082853 | 30 | 72 | 8.0 | 11.3 | 0.00 | 0.00 | 0.10 | 69 | 1002.0 |
| 20260508082352 | 30 | 74 | 11.3 | 14.5 | 0.00 | 0.00 | 0.10 | 70 | 1002.0 |
| 20260508081852 | 30 | 71 | 6.4 | 12.9 | 0.00 | 0.00 | 0.10 | 70 | 1003.0 |
| 20260508081351 | 30 | 89 | 11.3 | 14.5 | 0.00 | 0.00 | 0.10 | 70 | 1003.0 |
| 20260508080850 | 30 | 87 | 4.8 | 8.0 | 0.00 | 0.00 | 0.10 | 70 | 1003.0 |
| 20260508080351 | 30 | 39 | 6.4 | 9.7 | 0.00 | 0.00 | 0.10 | 68 | 1003.0 |
| 20260508075850 | 30 | 95 | 11.3 | 14.5 | 0.00 | 0.00 | 0.10 | 69 | 1003.0 |
| 20260508075350 | 30 | 78 | 8.0 | 9.7 | 0.00 | 0.00 | 0.10 | 71 | 1003.0 |
| 20260508074850 | 30 | 61 | 4.8 | 16.1 | 0.00 | 0.00 | 0.10 | 70 | 1003.0 |
| 20260508074351 | 30 | 32 | 4.8 | 4.8 | 0.00 | 0.00 | 0.10 | 71 | 1003.0 |
| 20260508073851 | 31 | 118 | 8.0 | 14.5 | 0.00 | 0.00 | 0.10 | 71 | 1003.0 |
| 20260508073350 | 30 | 91 | 4.8 | 9.7 | 0.00 | 0.00 | 0.10 | 72 | 1003.0 |
| 20260508072850 | 30 | 12 | 8.0 | 11.3 | 0.00 | 0.00 | 0.10 | 73 | 1003.0 |
| 20260508072351 | 30 | 86 | 14.5 | 17.7 | 0.00 | 0.00 | 0.10 | 73 | 1003.0 |
| 20260508071851 | 30 | 80 | 8.0 | 11.3 | 0.00 | 0.00 | 0.10 | 73 | 1004.0 |
| 20260508071350 | 30 | 71 | 9.7 | 11.3 | 0.00 | 0.00 | 0.10 | 74 | 1004.0 |
| 20260508070850 | 30 | 58 | 9.7 | 16.1 | 0.00 | 0.00 | 0.10 | 75 | 1004.0 |
| 20260508065948 | 30 | 58 | 11.3 | 16.1 | 0.00 | 0.00 | 0.10 | 75 | 1004.0 |
| 20260508065351 | 30 | 29 | 14.5 | 22.5 | 0.00 | 0.00 | 0.10 | 75 | 1004.0 |
| 20260508064850 | 30 | 97 | 20.9 | 24.1 | 0.00 | 0.00 | 0.10 | 75 | 1004.0 |
| 20260508064351 | 30 | 86 | 12.9 | 17.7 | 0.00 | 0.00 | 0.10 | 75 | 1004.0 |
| 20260508063850 | 30 | 80 | 9.7 | 14.5 | 0.00 | 0.00 | 0.10 | 74 | 1005.0 |
| 20260508063350 | 30 | 145 | 4.8 | 8.0 | 0.00 | 0.00 | 0.10 | 74 | 1004.0 |
| 20260508062851 | 29 | 81 | 14.5 | 20.9 | 0.00 | 0.00 | 0.10 | 76 | 1004.0 |
| 20260508062350 | 29 | 65 | 8.0 | 11.3 | 0.00 | 0.00 | 0.10 | 77 | 1004.0 |
| 20260508061850 | 29 | 65 | 11.3 | 16.1 | 0.00 | 0.00 | 0.10 | 78 | 1005.0 |
| 20260508061350 | 29 | 86 | 14.5 | 22.5 | 0.00 | 0.00 | 0.10 | 77 | 1005.0 |
| 20260508060850 | 29 | 73 | 4.8 | 8.0 | 0.00 | 0.00 | 0.10 | 77 | 1005.0 |
| 20260508060351 | 29 | 85 | 12.9 | 24.1 | 0.00 | 0.00 | 0.10 | 78 | 1005.0 |
| 20260508055850 | 29 | 128 | 11.3 | 14.5 | 0.00 | 0.00 | 0.10 | 81 | 1005.0 |
| 20260508055351 | 29 | 89 | 19.3 | 22.5 | 0.00 | 0.00 | 0.10 | 80 | 1005.0 |
| 20260508054850 | 29 | 64 | 11.3 | 16.1 | 0.00 | 0.00 | 0.10 | 81 | 1005.0 |